KD5VOO Weather Reports


time (UTC)temp
C
wind
direction
speed
KPH
gust
KPH
rain 1hr
cm
rain 24hr
cm
rain mn
cm
humidity
%
barometer
mb
20260510065844 19 123 0.0 0.0 0.00 0.00 0.00 79 1009.9
20260510065341 19 112 0.0 0.0 0.00 0.00 0.00 79 1009.9
20260510064838 19 110 0.0 0.0 0.00 0.00 0.00 79 1009.9
20260510064336 19 154 0.0 0.0 0.00 0.00 0.00 79 1009.9
20260510063832 19 122 0.0 0.0 0.00 0.00 0.00 79 1009.9
20260510063328 19 93 0.0 0.0 0.00 0.00 0.00 79 1009.9
20260510062825 19 115 0.0 0.0 0.00 0.00 0.00 79 1009.9
20260510062321 19 118 0.0 0.0 0.00 0.00 0.00 79 1009.9
20260510061816 19 120 0.0 0.0 0.00 0.00 0.00 79 1009.9
20260510061313 19 147 0.0 0.0 0.00 0.00 0.00 79 1009.9
20260510060809 19 104 0.0 0.0 0.00 0.00 0.00 79 1009.9
20260510060307 19 94 0.0 0.0 0.00 0.00 0.00 79 1009.9
20260510055803 19 89 0.0 0.0 0.00 0.00 0.00 79 1009.9
20260510055306 19 76 0.0 0.0 0.00 0.00 0.00 79 1009.9
20260510054801 19 51 0.0 0.0 0.00 0.00 0.00 79 1009.9
20260510054258 19 157 0.0 0.0 0.00 0.00 0.00 79 1009.9
20260510053758 19 127 0.0 0.0 0.00 0.00 0.00 79 1009.9
20260510053254 18 108 0.0 0.0 0.00 0.00 0.00 79 1009.9
20260510052750 18 149 0.0 0.0 0.00 0.00 0.00 79 1009.9
20260510052246 18 137 0.0 0.0 0.00 0.00 0.00 79 1009.9
20260510051742 18 77 0.0 0.0 0.00 0.00 0.00 79 1009.9
20260510051239 18 145 0.0 0.0 0.00 0.00 0.00 79 1010.2
20260510050736 18 153 0.0 0.0 0.00 0.00 0.00 79 1010.5
20260510050233 18 139 0.0 0.0 0.00 0.00 0.00 79 1010.2
20260510045729 18 137 0.0 0.0 0.00 0.00 0.00 79 1010.2
20260510045226 18 103 0.0 0.0 0.00 0.00 0.00 79 1010.5
20260510044722 18 67 0.0 0.0 0.00 0.00 0.00 79 1010.5
20260510044221 18 100 0.0 0.0 0.00 0.00 0.00 79 1010.5
20260510043716 19 86 0.0 0.0 0.00 0.00 0.00 79 1010.5
20260510043213 19 64 0.0 0.0 0.00 0.00 0.00 79 1010.9
20260510042710 19 35 0.0 0.0 0.00 0.00 0.00 79 1010.5
20260510042206 19 110 0.0 0.0 0.00 0.00 0.00 79 1010.9
20260510041703 19 76 0.0 0.0 0.00 0.00 0.00 79 1010.5
20260510041200 18 91 0.0 0.0 0.00 0.00 0.00 79 1010.5
20260510040657 18 336 0.0 0.0 0.00 0.00 0.00 79 1010.5
20260510040154 18 34 0.0 0.0 0.00 0.00 0.00 79 1010.2
20260510035649 18 138 0.0 0.0 0.00 7.44 7.44 79 1010.2
20260510035145 18 36 0.0 0.0 0.00 7.44 7.44 79 1010.2
20260510034642 18 63 0.0 0.0 0.00 7.44 7.44 79 1010.2
20260510034139 18 126 0.0 0.0 0.00 7.44 7.44 79 1010.2
20260510033635 18 63 0.0 0.0 0.00 7.44 7.44 79 1009.9
20260510033133 18 121 0.0 0.0 0.00 7.44 7.44 79 1009.9
20260510032629 18 130 0.0 0.0 0.00 7.44 7.44 79 1009.5
20260510032124 18 93 0.0 0.0 0.00 7.44 7.44 79 1009.5
20260510031619 18 104 0.0 0.0 0.00 7.44 7.44 79 1009.5
20260510031116 18 119 0.0 0.0 0.00 7.44 7.44 79 1009.2
20260510030611 18 120 0.0 0.0 0.00 7.44 7.44 79 1009.5
20260510030109 18 156 0.0 0.0 0.00 7.44 7.44 79 1009.9
20260510025606 18 147 0.0 0.0 0.00 7.44 7.44 79 1009.5
20260510025103 18 111 0.0 0.0 0.00 7.44 7.44 79 1009.5
20260510024600 18 122 0.0 0.0 0.00 7.44 7.44 79 1009.5
20260510024056 18 113 0.0 0.0 0.00 7.44 7.44 79 1009.9
20260510023552 18 112 0.0 0.0 0.00 7.44 7.44 79 1010.2
20260510023050 18 112 0.0 0.0 0.00 7.44 7.44 79 1009.9
20260510022550 18 95 0.0 0.0 0.00 7.44 7.44 79 1010.2
20260510022049 18 187 0.0 0.0 0.00 7.44 7.44 79 1010.2
20260510021546 18 349 0.0 0.0 0.00 7.44 7.44 79 1010.2
20260510021044 18 192 0.0 0.0 0.00 7.44 7.44 79 1010.2
20260510020544 18 302 0.0 0.0 0.00 7.44 7.44 79 1010.2
20260510020040 18 256 4.8 8.0 0.00 7.44 7.44 79 1010.2
20260510015536 18 234 0.0 0.0 0.00 7.44 7.44 79 1009.2
20260510015032 18 178 0.0 0.0 0.00 7.44 7.44 79 1009.2
20260510014528 18 200 1.6 3.2 0.00 7.44 7.44 79 1009.2
20260510014026 18 184 0.0 0.0 0.00 7.44 7.44 79 1008.8
20260510013520 18 166 0.0 0.0 0.00 7.44 7.44 79 1008.8
20260510013017 18 175 0.0 0.0 0.00 7.44 7.44 79 1008.8
20260510012516 18 114 0.0 0.0 0.00 7.44 7.44 79 1009.2
20260510012013 18 190 0.0 0.0 0.00 7.44 7.44 79 1009.5
20260510011507 18 189 0.0 0.0 0.00 7.44 7.44 79 1009.5
20260510011003 18 105 0.0 0.0 0.00 7.44 7.44 79 1009.5
20260510010500 18 165 0.0 0.0 0.18 7.44 7.44 79 1009.9
20260510005957 18 175 0.0 0.0 0.18 7.44 7.44 79 1009.9
20260510005453 18 183 0.0 0.0 0.00 7.42 7.42 79 1009.9
20260510004951 18 209 0.0 0.0 0.00 7.42 7.42 79 1010.2
20260510004447 18 288 0.0 0.0 0.18 7.42 7.42 79 1010.2
20260510003946 18 176 0.0 0.0 0.18 7.42 7.42 79 1010.5
20260510003442 18 143 0.0 0.0 0.00 7.39 7.39 79 1010.2
20260510002942 18 188 0.0 0.0 0.00 7.39 7.39 79 1010.2
20260510002439 18 226 0.0 0.0 0.18 7.39 7.39 79 1009.9
20260510001935 18 193 0.0 0.0 0.18 7.39 7.39 79 1009.9
20260510001433 18 207 0.0 0.0 0.00 7.34 7.34 79 1009.5
20260510000931 18 192 0.0 0.0 0.00 7.34 7.34 79 1009.2
20260510000427 18 193 0.0 0.0 0.00 7.34 7.34 79 1008.8
20260509235923 18 194 0.0 0.0 0.00 7.34 7.34 79 1008.8
20260509235420 18 139 0.0 0.0 0.00 7.34 7.34 79 1008.5
20260509234916 18 169 0.0 0.0 0.00 7.34 7.34 79 1008.8
20260509234413 18 30 0.0 0.0 0.00 7.34 7.34 79 1008.8
20260509233911 18 50 0.0 0.0 0.00 7.34 7.34 79 1008.8
20260509233408 18 158 0.0 0.0 0.00 7.34 7.34 79 1008.8
20260509232904 18 199 0.0 3.2 0.00 7.34 7.34 79 1008.8
20260509232402 18 326 8.0 12.9 0.00 7.34 7.34 79 1008.8
20260509231858 18 130 0.0 0.0 0.00 7.34 7.34 79 1008.2
20260509231355 18 214 0.0 0.0 0.00 7.34 7.34 79 1007.8
20260509230853 18 191 0.0 0.0 0.18 7.34 7.34 79 1007.8
20260509230349 18 229 3.2 8.0 0.18 7.34 7.34 79 1007.8
20260509225845 18 183 3.2 3.2 0.18 7.32 7.32 79 1008.2
20260509225342 18 200 4.8 8.0 0.18 7.32 7.32 79 1008.2
20260509224838 18 214 4.8 8.0 0.00 7.29 7.29 79 1008.2
20260509224334 18 187 0.0 0.0 0.18 7.29 7.29 79 1008.2
20260509223831 18 199 4.8 8.0 0.18 7.29 7.29 79 1008.2
20260509223328 18 211 0.0 0.0 0.18 7.26 7.26 79 1008.2
20260509222825 18 176 0.0 0.0 0.18 7.26 7.26 79 1008.2
20260509222320 18 201 1.6 3.2 0.36 7.24 7.24 79 1008.2
20260509221815 18 217 6.4 8.0 0.53 7.19 7.19 79 1008.5
20260509221313 18 202 3.2 3.2 0.53 7.16 7.16 79 1008.8
20260509220808 18 231 4.8 8.0 0.36 7.11 7.11 79 1008.5
20260509220305 18 155 0.0 0.0 0.36 7.09 7.09 79 1008.5
20260509215800 18 156 0.0 0.0 0.18 7.01 7.01 79 1008.8
20260509215257 18 103 0.0 0.0 0.53 7.01 7.01 79 1008.8
20260509214754 18 160 0.0 0.0 0.71 6.99 6.99 79 1008.5
20260509214251 18 121 0.0 0.0 0.53 6.91 6.91 79 1008.8
20260509213748 18 167 0.0 0.0 0.53 6.86 6.86 79 1008.8
20260509213243 18 103 0.0 0.0 0.53 6.81 6.81 79 1008.8
20260509212741 18 170 0.0 0.0 0.53 6.76 6.76 79 1009.2
20260509212238 18 171 0.0 0.0 0.53 6.73 6.73 79 1009.5
20260509211734 18 88 0.0 0.0 0.36 6.65 6.65 79 1009.2
20260509211230 18 129 0.0 0.0 0.53 6.63 6.63 79 1008.8
20260509210727 18 96 0.0 0.0 0.53 6.60 6.60 79 1008.8
20260509210225 18 176 0.0 0.0 0.36 6.53 6.53 79 1008.8
20260509205724 18 181 0.0 0.0 0.36 6.50 6.50 79 1008.8
20260509205224 18 171 0.0 0.0 0.36 6.48 6.48 79 1008.5
20260509204720 18 190 0.0 0.0 0.53 6.45 6.45 79 1008.5
20260509204217 18 184 0.0 0.0 1.09 6.40 6.40 79 1009.2
20260509203713 18 229 0.0 0.0 1.09 6.35 6.35 79 1009.2
20260509203211 18 160 0.0 0.0 0.71 6.20 6.20 79 1009.2
20260509202706 18 223 0.0 0.0 0.71 6.15 6.15 79 1009.5
20260509202201 18 95 0.0 0.0 0.71 6.10 6.10 79 1009.2
20260509201657 18 94 4.8 8.0 0.53 5.99 5.99 79 1008.5
20260509201154 18 279 0.0 0.0 0.53 5.94 5.94 79 1009.2
20260509200650 19 164 0.0 0.0 1.80 5.92 5.92 79 1008.8
20260509200145 19 180 0.0 0.0 1.98 5.84 5.84 79 1008.8
20260509195642 19 215 4.8 12.9 0.71 5.59 5.59 79 1008.8
20260509195137 19 201 0.0 0.0 0.71 5.51 5.51 79 1008.8
20260509194637 19 161 0.0 3.2 0.71 5.46 5.46 79 1008.5
20260509194134 19 198 6.4 8.0 0.36 5.36 5.36 79 1008.8
20260509193630 19 236 0.0 0.0 0.53 5.33 5.33 79 1009.2
20260509193126 19 188 0.0 0.0 0.18 5.28 5.28 79 1008.8
20260509192623 19 196 3.2 3.2 0.18 5.26 5.26 79 1009.5
20260509192118 19 202 0.0 0.0 0.18 5.26 5.26 79 1009.2
20260509191618 19 213 8.0 12.9 0.00 5.23 5.23 79 1009.2
20260509191115 19 185 0.0 0.0 0.00 5.23 5.23 79 1009.2
20260509190611 19 193 0.0 0.0 0.00 5.23 5.23 79 1009.5
20260509190109 19 177 3.2 3.2 0.00 5.23 5.23 79 1009.5
20260509185606 19 211 6.4 8.0 0.18 5.23 5.23 79 1009.5
20260509185102 19 215 4.8 8.0 0.18 5.23 5.23 79 1009.5
20260509184601 19 191 0.0 0.0 0.00 5.18 5.18 79 1009.2
20260509184057 19 159 0.0 0.0 0.00 5.18 5.18 79 1009.2
20260509183552 19 129 0.0 0.0 0.00 5.18 5.18 79 1009.5
20260509183048 19 178 0.0 0.0 0.00 5.18 5.18 79 1009.9
20260509182545 19 200 0.0 0.0 0.00 5.18 5.18 79 1009.9
20260509182042 19 177 0.0 0.0 0.00 5.18 5.18 79 1009.9
20260509181540 19 173 0.0 0.0 0.00 5.18 5.18 79 1009.9
20260509181037 19 159 0.0 0.0 0.00 5.18 5.18 79 1009.5
20260509180532 19 144 0.0 0.0 0.00 5.18 5.18 79 1009.5
20260509180030 19 113 3.2 3.2 0.00 5.18 5.18 79 1009.2
20260509175525 19 89 3.2 8.0 0.00 5.18 5.18 79 1009.2
20260509175023 19 130 1.6 3.2 0.00 5.18 5.18 79 1009.2
20260509174519 19 139 0.0 0.0 0.00 5.18 5.18 79 1009.2
20260509174014 19 114 0.0 0.0 0.00 5.18 5.18 79 1009.2
20260509173508 19 120 3.2 3.2 0.00 5.18 5.18 79 1009.2
20260509173005 19 119 0.0 0.0 0.00 5.18 5.18 79 1009.5
20260509172502 18 144 0.0 0.0 0.00 5.18 5.18 79 1009.9
20260509171958 18 121 0.0 0.0 0.00 5.18 5.18 79 1009.5
20260509171454 18 119 0.0 0.0 0.00 5.18 5.18 79 1009.2
20260509170951 18 149 0.0 0.0 0.00 5.18 5.18 79 1009.5
20260509170446 18 156 0.0 0.0 0.00 5.18 5.18 79 1009.5
20260509165942 18 156 0.0 0.0 0.00 5.18 5.18 79 1009.5
20260509165441 18 111 3.2 3.2 0.00 5.18 5.18 79 1009.5
20260509164937 18 164 0.0 0.0 0.00 5.18 5.18 79 1009.9
20260509164433 18 165 0.0 0.0 0.00 5.18 5.18 79 1009.9
20260509163929 18 185 0.0 0.0 0.00 5.18 5.18 79 1009.9
20260509163427 18 188 0.0 0.0 0.00 5.18 5.18 79 1009.9
20260509162926 18 183 0.0 0.0 0.00 5.18 5.18 79 1009.9
20260509162425 18 152 0.0 0.0 0.00 5.18 5.18 79 1009.9
20260509161920 18 184 0.0 0.0 0.00 5.18 5.18 79 1009.5
20260509161417 18 146 0.0 0.0 0.00 5.18 5.18 79 1009.5
20260509160912 18 155 0.0 0.0 0.00 5.18 5.18 79 1009.5
20260509160408 18 79 0.0 0.0 0.00 5.18 5.18 79 1009.5
20260509155903 18 145 0.0 0.0 0.00 5.18 5.18 79 1009.5
20260509155400 18 137 0.0 0.0 0.00 5.18 5.18 79 1009.9
20260509154857 18 189 0.0 0.0 0.00 5.18 5.18 79 1010.2
20260509154353 18 191 0.0 0.0 0.00 5.18 5.18 79 1009.9
20260509153850 18 169 0.0 0.0 0.00 5.18 5.18 79 1009.9
20260509153347 18 140 0.0 0.0 0.00 5.18 5.18 79 1009.9
20260509152844 18 129 0.0 0.0 0.00 5.18 5.18 79 1009.9
20260509152340 18 159 0.0 0.0 0.00 5.18 5.18 79 1009.9
20260509151837 18 106 0.0 0.0 0.00 5.18 5.18 79 1009.9
20260509151333 18 163 0.0 0.0 0.00 5.18 5.18 79 1009.9
20260509150832 18 205 0.0 0.0 0.00 5.18 5.18 79 1009.9
20260509150329 18 201 0.0 0.0 0.00 5.18 5.18 79 1009.9
20260509145826 18 163 0.0 0.0 0.00 5.18 5.18 79 1009.9
20260509145321 18 161 0.0 0.0 0.00 5.18 5.18 79 1009.5
20260509144818 18 76 0.0 0.0 0.00 5.18 5.18 79 1009.5
20260509144315 18 169 0.0 0.0 0.00 5.18 5.18 79 1009.5
20260509143812 18 166 0.0 0.0 0.00 5.18 5.18 79 1009.2
20260509143309 18 130 0.0 0.0 0.00 5.18 5.18 79 1009.2
20260509142805 18 29 0.0 0.0 0.00 5.18 5.18 79 1009.2
20260509142301 18 203 0.0 0.0 0.00 5.18 5.18 79 1009.2
20260509141757 18 178 0.0 0.0 0.00 5.18 5.18 79 1009.2
20260509141254 18 163 0.0 0.0 0.00 5.18 5.18 79 1008.8
20260509140751 18 118 0.0 0.0 0.00 5.18 5.18 79 1008.8
20260509140248 18 188 0.0 0.0 0.00 5.18 5.18 79 1008.8
20260509135746 18 181 0.0 0.0 0.00 5.18 5.18 79 1008.8
20260509135243 18 151 0.0 0.0 0.00 5.18 5.18 79 1008.5
20260509134740 18 156 0.0 0.0 0.18 5.18 5.18 79 1008.8
20260509134238 18 219 0.0 0.0 0.18 5.18 5.18 79 1008.8
20260509133735 18 153 0.0 0.0 0.00 5.16 5.16 79 1008.8
20260509133231 18 109 1.6 3.2 0.18 5.16 5.16 79 1008.8
20260509132730 18 160 0.0 0.0 0.36 5.16 5.16 79 1008.8
20260509132228 18 159 0.0 0.0 1.09 5.13 5.13 79 1008.8
20260509131725 18 186 0.0 0.0 1.63 5.08 5.08 79 1009.2
20260509131221 18 137 0.0 0.0 1.09 4.93 4.93 79 1008.8
20260509130717 18 230 0.0 0.0 1.45 4.80 4.80 79 1009.2
20260509130213 18 156 0.0 0.0 2.16 4.75 4.75 79 1009.2
20260509125710 18 296 0.0 0.0 0.71 4.50 4.50 79 1009.5
20260509125207 18 164 0.0 0.0 0.18 4.37 4.37 79 1009.2
20260509124703 18 143 0.0 0.0 0.53 4.37 4.37 79 1008.5
20260509124200 18 112 0.0 0.0 0.71 4.34 4.34 79 1008.8
20260509123658 18 163 3.2 3.2 1.27 4.29 4.29 79 1008.2
20260509123155 18 104 4.8 8.0 2.16 4.24 4.24 79 1008.8
20260509122650 18 115 4.8 8.0 2.87 3.99 3.99 79 1009.2
20260509122147 18 42 4.8 8.0 3.05 3.78 3.78 79 1008.8
20260509121644 18 36 0.0 0.0 2.16 3.48 3.48 79 1009.2
20260509121142 18 140 0.0 0.0 1.80 3.25 3.25 79 1009.2
20260509120640 18 176 0.0 0.0 2.16 3.05 3.05 79 1008.8
20260509120138 18 74 1.6 3.2 2.51 2.95 2.95 79 1008.8
20260509115635 18 126 0.0 0.0 4.32 2.67 2.67 79 1009.2
20260509115132 19 33 9.7 16.1 6.30 2.46 2.46 79 1008.8
20260509114630 20 60 16.1 20.9 3.43 1.83 1.83 79 1009.5
20260509114129 20 25 12.9 24.1 0.71 1.37 1.37 79 1009.5
20260509113627 20 88 9.7 12.9 0.00 1.27 1.27 79 1008.8
20260509113124 20 332 9.7 12.9 0.00 1.27 1.27 79 1009.2
20260509112620 20 44 4.8 8.0 0.00 1.27 1.27 79 1008.8
20260509112118 20 127 0.0 0.0 0.00 1.27 1.27 79 1007.8
20260509111615 20 164 0.0 0.0 0.00 1.27 1.27 79 1007.1
20260509111111 20 253 0.0 0.0 0.00 1.27 1.27 79 1007.1
20260509110609 20 207 0.0 0.0 0.00 1.27 1.27 79 1007.1
20260509110106 20 174 0.0 0.0 0.00 1.27 1.27 79 1006.5
20260509105604 20 212 0.0 0.0 0.00 1.27 1.27 79 1006.5
20260509105101 20 214 0.0 0.0 0.00 1.27 1.27 79 1006.5
20260509104558 20 206 0.0 0.0 0.00 1.27 1.27 79 1006.1
20260509104055 20 211 0.0 0.0 0.00 1.27 1.27 79 1006.1
20260509103553 20 173 0.0 0.0 0.00 1.27 1.27 79 1006.1
20260509103051 20 200 0.0 0.0 0.00 1.27 1.27 79 1005.8
20260509102548 20 185 0.0 0.0 0.00 1.27 1.27 79 1006.1
20260509102044 20 167 0.0 0.0 0.00 1.27 1.27 79 1006.5
20260509101540 20 172 0.0 0.0 0.00 1.27 1.27 79 1006.8
20260509101038 20 186 0.0 0.0 0.00 1.27 1.27 79 1006.8
20260509100535 20 185 0.0 0.0 0.00 1.27 1.27 79 1006.5
20260509100032 20 173 0.0 0.0 0.00 1.27 1.27 79 1006.5
20260509095529 20 178 0.0 0.0 0.00 1.27 1.27 79 1006.1
20260509095026 20 175 0.0 0.0 0.00 1.27 1.27 79 1006.5
20260509094522 20 188 0.0 0.0 0.00 1.27 1.27 79 1006.5
20260509094020 20 210 0.0 0.0 0.00 1.27 1.27 79 1005.8
20260509093518 20 160 0.0 0.0 0.00 1.27 1.27 79 1005.8
20260509093015 20 187 0.0 0.0 0.00 1.27 1.27 79 1005.8
20260509092513 20 167 0.0 0.0 0.00 1.27 1.27 79 1005.8
20260509092011 20 176 0.0 0.0 0.00 1.27 1.27 79 1005.8
20260509091508 20 195 0.0 0.0 0.00 1.27 1.27 79 1005.8
20260509091005 20 169 0.0 0.0 0.00 1.27 1.27 79 1006.1
20260509090502 20 176 0.0 0.0 0.00 1.27 1.27 79 1006.1
20260509090000 20 176 0.0 0.0 0.00 1.27 1.27 79 1006.1
20260509085456 20 159 0.0 0.0 0.00 1.27 1.27 79 1006.1
20260509084952 20 207 0.0 0.0 0.00 1.27 1.27 79 1006.5
20260509084449 20 214 0.0 0.0 0.00 1.27 1.27 79 1006.5
20260509083947 20 176 0.0 0.0 0.00 1.27 1.27 79 1006.8
20260509083444 20 202 0.0 0.0 0.00 1.27 1.27 79 1006.8
20260509082941 20 174 0.0 0.0 0.00 1.27 1.27 79 1006.8
20260509082438 20 176 0.0 0.0 0.00 1.27 1.27 79 1007.1
20260509081935 20 234 0.0 0.0 0.00 1.27 1.27 79 1007.1
20260509081432 20 178 0.0 0.0 0.00 1.27 1.27 79 1006.8
20260509080929 20 175 0.0 0.0 0.00 1.27 1.27 79 1007.1
20260509080427 20 193 0.0 0.0 0.00 1.27 1.27 79 1007.1
20260509075925 20 160 0.0 0.0 0.00 1.27 1.27 79 1007.1
20260509075422 20 177 0.0 0.0 0.00 1.27 1.27 79 1007.1
20260509074919 20 197 0.0 0.0 0.00 1.27 1.27 79 1007.1
20260509074417 20 174 0.0 0.0 0.00 1.27 1.27 79 1007.1
20260509073913 20 177 0.0 0.0 0.53 1.27 1.27 79 1007.5
20260509073410 20 202 1.6 3.2 1.63 1.27 1.27 79 1007.1
20260509072906 20 151 3.2 3.2 1.63 1.14 1.14 79 1007.5
20260509072403 20 283 9.7 12.9 1.09 0.99 0.99 79 1007.8
20260509071859 20 186 4.8 8.0 1.63 0.86 0.86 79 1008.2
20260509071356 20 210 12.9 16.1 2.51 0.76 0.76 79 1008.2
20260509070854 20 178 6.4 8.0 1.45 0.53 0.53 79 1008.2
20260509070350 20 232 9.7 12.9 1.09 0.33 0.33 79 1007.8